Filtrer par Nom Sexe Groupe d'age
Grimpee du Ventoux 2006
RG. DOS. TEMPS CAT RG. POINTS
1 1502 SOENEN JOHN 01:11:50:000 Hom 1 0.00 MAASMECHELEN, BELGIQUE
2 47 LAINE CHRISTOPHE 01:11:59:000 Hom 2 0.00 LA SEYNE S/MER, FRANCE
3 102 ROUX MICHEL 01:12:12:000 Hom 3 0.00 DIGNE LES BAINS, FRANCE
4 1562 MARTIN NICOLAS 01:13:34:000 Hom 4 0.00 LYON, FRANCE
5 1544 QUERBES DAMIEN 01:14:26:000 Hom 5 0.00 NIMES, FRANCE
6 101 MESTRE BRUNO 01:15:19:000 Hom 6 0.00 CASTELLANE, FRANCE
7 1556 COSTECHAREYRE CLAUDE 01:15:20:000 Hom 7 0.00 TAIN L HERMITAGE, FRANCE
8 1511 DEPETRIS ALAIN 01:16:11:000 Hom 8 0.00 MARSEILLE, FRANCE
9 111 SPEYBROUCK FILIP 01:16:51:000 Hom 9 0.00 BRUGGE, BELGIQUE
10 19 PETERS JIM 01:16:57:000 Hom 10 0.00 Loughborough, Royaume-Uni
11 187 COMBES JEAN MARC 01:17:03:000 Hom 11 0.00 FUVEAU, FRANCE
12 1550 COUTON ALEXANDRE 01:18:39:000 Hom 12 0.00 BUIS LES BARONNIES, FRANCE
13 1549 HERNANDEZ JEAN PHILIPPE 01:18:50:000 Hom 13 0.00 LIVRON SUR DROME, FRANCE
14 123 COLLARD CHRISTOPHE 01:21:41:000 Hom 14 0.00 LE BESSAT, FRANCE
15 1553 KOCH ROBERT 01:21:49:000 Hom 15 0.00 LAGOLUSTADT, ALLEMAGNE
16 1557 LINSOLAS MURIELLE 01:22:10:000 Fe 1 0.00 VILLEUNEUVE LES AVIGNON, FRANCE
17 1558 GOMORD NICOLAS 01:22:14:000 Hom 16 0.00 COURTHEZON, FRANCE
18 1561 JEANMAIRE CHARLES 01:24:18:000 Hom 17 0.00 ISTRES, FRANCE
19 1569 FAVELL ALAN 01:24:52:000 Hom 18 0.00 VERNON, CANADA
20 189 FREAU DENIS 01:25:34:000 Hom 19 0.00 PIOLENC, France
21 42 DURANTON ERIC 01:25:42:000 Hom 20 0.00 SAINT ETIENNE, FRANCE
22 1568 BERGER GUY 01:25:43:000 Hom 21 0.00 PELUSSIN, FRANCE
23 388 METZ DANIEL 01:25:51:000 Hom 22 0.00 MEYLAN, FRANCE
24 39 CLEMENT LAURENT 01:25:59:000 Hom 23 0.00 ANNONAY, France
25 103 EDOUARD MICHAEL 01:26:46:000 Hom 24 0.00 SAINT NAZAIRE, FRANCE
26 1579 LUBESPERE J.FRANCOIS 01:27:01:000 Hom 25 0.00 ORANGE, FRANCE
27 355 GILLINGHAM ROBIN 01:27:10:000 Hom 26 0.00 DORSET, Royaume-Uni
28 1529 SCHELPE JOHAN 01:27:12:000 Hom 27 0.00 , Pays-Bas
29 179 MENDEZ-NAVARRO STEPHANE 01:27:41:000 Hom 28 0.00 SARRAS, FRANCE
30 358 DI GLERIA OLIVIER 01:27:45:000 Hom 29 0.00 CHEVENOZ, FRANCE
31 128 DESPLACES ALAIN 01:28:39:000 Hom 30 0.00 POLEYMIEUX AU MT D OR, FRANCE
32 201 NOPPEN LEO 01:28:40:000 Hom 31 0.00 DORDRECHT, Pays-Bas
33 360 INGLES NEIL 01:28:52:000 Hom 32 0.00 POOLE, Royaume-Uni
34 1571 DAVID VALERE 01:29:25:000 Hom 33 0.00 GADAGNE, FRANCE
35 1505 CHOVIN CHRISTOPHE 01:29:37:000 Hom 34 0.00 SAINT HONORE, FRANCE
36 1547 PRUNARET STEPHANE 01:29:43:000 Hom 35 0.00 ROMANS SUR ISERE, FRANCE
37 1555 ROSSI JOAKIM 01:30:09:000 Hom 36 0.00 PELISSANNE, FRANCE
38 1548 PONCIEUX NICOLAS 01:30:13:000 Hom 37 0.00 BOURG LES VALENCE, FRANCE
39 159 NOEL JEAN CLAUDE 01:31:06:000 Hom 38 0.00 SAINT RAPHAEL, FRANCE
40 931 VERSTOCKEN TOM 01:31:23:000 Hom 39 0.00 SINT NIKLAAS, BELGIQUE
41 368 SUCHET DOMINIQUE 01:32:04:000 Hom 40 0.00 LES EYZIES DE TAYAC, FRANCE
42 376 MAMBRE GILLES 01:32:07:000 Hom 41 0.00 TOULON, FRANCE
43 169 LEFEBVRE RAYMOND 01:32:18:000 Hom 42 0.00 SIX FOURS, FRANCE
44 1560 VAN HELVOORT ARNO 01:33:32:000 Hom 43 0.00 BEUNINGEN, Pays-Bas
45 147 ROBIN JACKIE 01:33:33:000 Hom 44 0.00 SIX FOURS LES PLAGES, FRANCE
46 2508 MONTADER BERNARD 01:34:24:000 Hom 45 0.00 MILLAU, FRANCE
47 87 VIRGIL JEAN LUC 01:34:31:000 Hom 46 0.00 TOULON, FRANCE
48 364 HAHN MICHAEL 01:35:17:000 Hom 47 0.00 QUAIX EN CHARTREUSE, FRANCE
49 1552 FUSTER FREDERIC 01:35:29:000 Hom 48 0.00 NICE, FRANCE
50 367 PICHAND YVES 01:35:43:000 Hom 49 0.00 VILLEREST, FRANCE
51 174 ALMERAS J.MARC 01:35:54:000 Hom 50 0.00 VEDENE, FRANCE
52 1503 NGUYEN FRANCK 01:36:09:000 Hom 51 0.00 SAINT MARTIN LE VINOUX, FRANCE
53 2035 ROSSI MICHEL 01:36:22:000 Hom 52 0.00 PELISSANNE, FRANCE
54 1532 VERHELLEN TOM 01:36:32:000 Hom 53 0.00 BOORTMEERBEEK, BELGIQUE
55 349 CERRI STEFANO 01:36:43:000 Hom 54 0.00 CANEGRATE MI, 19
56 1514 BRUGUIER FREDERIC 01:37:05:000 Hom 55 0.00 LA VALETTE, FRANCE
57 65 GOEGAN PIERRE 01:38:33:000 Hom 56 0.00 RIANS, France
58 1506 NGUYEN GUY 01:38:44:000 Hom 57 0.00 GRENOBLE, FRANCE
59 1563 GIRARD BERTRAND 01:38:53:000 Hom 58 0.00 ENTRE DEUX GUIERS, FRANCE
60 1543 PEDETOUR PIERRE 01:38:55:000 Hom 59 0.00 NICE, FRANCE
61 1551 COUTTON SERGE 01:39:30:000 Hom 60 0.00 BUIS LES BARONNIES, FRANCE
62 316 VERMEULEN RUUD 01:41:17:000 Hom 61 0.00 OSS, Pays-bas
63 1546 BARTHELEMY ERIC 01:42:54:000 Hom 62 0.00 GRENOBLE, FRANCE
64 167 SULAS CHARLES 01:43:35:000 Hom 63 0.00 MARSEILLE, FRANCE
65 932 VERSTOCKEN IGNACE 01:43:35:000 Hom 64 0.00 SINT NIKLAAS, BELGIQUE
66 1554 LEGER JEAN CLAUDE 01:44:29:000 Hom 65 0.00 CAVAILLON, FRANCE
67 2222 DELAITRE STEPHANE 01:46:17:000 Hom 66 0.00 ST GENEST D AMBIERE, FRANCE
68 960 DUMOULIN JEAN LOUIS 01:46:25:000 Hom 67 0.00 PARIS, FRANCE
69 1573 QUERBES JEAN-PIERRE 01:47:20:000 Hom 68 0.00 NIMES, FRANCE
70 50 DICKHOUT JAN 01:47:48:000 Hom 69 0.00 EINDHOVEN, Pays-Bas
71 306 MULLER FABRICE 01:48:06:000 Hom 70 0.00 MAREUIL SUR OURCQ, FRANCE
72 1540 PRADEAU JEAN 01:49:31:000 Hom 71 0.00 LES ORRES, FRANCE
73 1542 NICOL GUY 01:49:53:000 Hom 72 0.00 NIMES, FRANCE
74 192 BASCOP PASCAL 01:50:34:000 Hom 73 0.00 ROANNE, France
75 1572 PETIT MARC 01:51:09:000 Hom 74 0.00 LES ISSAMBRES, FRANCE
76 2022 CALVIN ROBERT 01:51:12:000 Hom 75 0.00 LE PONTET, FRANCE
77 49 ARENS JEAN CLAUDE 01:52:50:000 Hom 76 0.00 FROIDECONCHE, FRANCE
78 406 VERWEIJMEREN DONALD 01:52:57:000 Hom 77 0.00 ELSHOUT, Pays-bas
79 366 TAMAGNE GILLES 01:53:31:000 Hom 78 0.00 GONFARON, FRANCE
80 46 TRONEL JEAN - JACQUES 01:54:03:000 Hom 79 0.00 Saint Colomban des Villards, France
81 1545 COTTIN ALAIN 01:55:13:000 Hom 80 0.00 MARDORE, FRANCE
82 382 VANDUYNSLAEGER PATRICK 01:55:28:000 Hom 81 0.00 CAGNES SUR MER, FRANCE
83 2032 COMBES PASCALE 01:56:42:000 Fe 2 0.00 FUVEAU, FRANCE
84 1539 LIEPHOUT PHILIPPE 01:58:30:000 Hom 82 0.00 JONQUIERES, FRANCE
86 1533 CHESTA YVES 02:03:46:000 Hom 83 0.00 LE ROURET, FRANCE
87 2201 LEBRUN EDWIN 02:07:51:000 Hom 84 0.00 BROEK IN WATERLAND, Pays-Bas
88 1559 DRIESSENS GERARD 02:09:54:000 Hom 85 0.00 PUGET DURANCE, FRANCE
89 396 ROUZAUD THIERRY 02:13:11:000 Hom 86 0.00 CARNOUX EN PROVENCE, FRANCE
90 1537 JUMETZ DAVID 02:21:11:000 Hom 87 0.00 MALLEMOISSON, FRANCE

La Probikeshop GF Mont Ventoux Beaumes-de-Venise

Chers amis cyclistes,

Depuis le début de la pandémie de COVID-19 en Europe, nous avons travaillé durement pour conserver le maximum d’événements à notre calendrier, le tout avec l'idée de vous assurer le maximum de sécurité.

Cependant, au fil des semaines qui passent, des échéances qui se rapprochent, nous devons nous résoudre à admettre qu’il ne sera pas possible de conserver certaines des épreuves encore inscrites à notre calendrier.

Par conséquent, nous sommes au regret de vous annoncer que l' éditions 2020 de la Probikeshop Mont Ventoux Beaumes-de-Venise n’aura pas lieu. C’est une décision difficile mais le faible nombre d’inscrits sur l'épreuve, ne nous permet pas de mettre en place les conditions sécuritaires et sanitaires nécessaires à sa bonne organisation.

Si vous vous étiez inscrits sur l’épreuve, vous recevrez un mail avec toutes les informations utiles concernant votre inscription.

En revanche, nous serons toujours ravis de vous accueillir en 2020 sur :

-La Marmotte Granfondo Valais le 8 août
-Les 3 Ballons le 22 août.
-La LEPAPE Marmotte Granfondo Alpes le 5 septembre.
-La Ronde Tahitienne le 13 septembre
-La Granfondo Vosges le 27 septembre.


Encore merci pour votre patience et pour votre compréhension.
Prenez soin de vous.

L’équipe d’organisation.
TOP